Marion, IN

2:46 AM EDT on July 30, 2016 (GMT -0400)
Marion Municipal

Weather History for KMZZ - June, 2014

Change the Weather History Date:

Tuesday, June 10, 2014

  Actual Average (KMIE) Record (KMIE)
Temperature  
Mean Temperature 66 °F 70 °F  
Max Temperature 71 °F 80 °F 94 °F (1968)
Min Temperature 61 °F 60 °F 44 °F (1988)
Degree Days  
Heating Degree Days 0 1  
Month to date heating degree days 15  
Since 1 June heating degree days 15  
Since 1 July heating degree days 5774  
Cooling Degree Days 1 6  
Month to date cooling degree days 52  
Year to date cooling degree days 135  
Since 1 June cooling degree days 52  
Growing Degree Days 16 (Base 50)    
Moisture  
Dew Point 59 °F    
Average Humidity 80    
Maximum Humidity 95    
Minimum Humidity 66    
Precipitation  
Precipitation 0.18 in 0.15 in 1.47 in (2016)
Month to date precipitation 1.63  
Year to date precipitation 17.20  
Sea Level Pressure  
Sea Level Pressure 29.88 in    
Wind  
Wind Speed 7 mph (ESE)    
Max Wind Speed 16 mph    
Max Gust Speed 21 mph    
Visibility 7 miles    
Events Rain    
T = Trace of Precipitation, MM = Missing Value Source: NWS Daily Summary

Daily Weather History Graph

Daily Weather History Graph

Search for Another Location

Airport or City:

Trip Planner

Search our weather history database for the weather conditions in past years. The results will help you decide how hot, cold, wet, or windy it might be!

Date:

Astronomy

Jun. 10, 2014 Rise Set
Actual Time 6:11 AM EDT 9:12 PM EDT
Civil Twilight 5:38 AM EDT 9:45 PM EDT
Nautical Twilight 4:57 AM EDT 10:27 PM EDT
Astronomical Twilight 4:08 AM EDT 11:16 PM EDT
Moon 6:36 PM EDT (6/10) 4:17 AM EDT (6/10)
Length of Visible Light 16h 06m
Length of Day
15h 00m
Waxing Gibbous, 92% of the Moon is Illuminated
Jun 10
Waxing Gibbous
Jun 13
Full
Jun 19
Last Quarter
Jun 27
New
Jul 5
First Quarter

Hourly Weather History & Observations

Time (EDT) Temp. Dew Point Humidity Pressure Visibility Wind Dir Wind Speed Gust Speed Precip Events Conditions
12:15 AM 64.6 °F 57.2 °F 77% 29.94 in 10.0 mi East 3.5 mph - N/A   Unknown
12:35 AM 63.7 °F 57.2 °F 79% 29.93 in 7.0 mi East 4.6 mph - N/A   Unknown
12:55 AM 63.7 °F 57.2 °F 79% 29.92 in 7.0 mi East 5.8 mph - N/A   Unknown
1:15 AM 64.0 °F 57.0 °F 78% 29.92 in 10.0 mi ESE 3.5 mph - N/A   Unknown
1:35 AM 63.9 °F 56.5 °F 77% 29.92 in 10.0 mi Calm Calm - N/A   Unknown
1:55 AM 63.9 °F 56.1 °F 76% 29.92 in 7.0 mi SE 3.5 mph - N/A   Unknown
2:15 AM 63.1 °F 56.1 °F 78% 29.91 in 10.0 mi ESE 3.5 mph - N/A   Unknown
2:35 AM 63.5 °F 55.9 °F 76% 29.92 in 10.0 mi Calm Calm - N/A   Unknown
2:55 AM 63.0 °F 56.3 °F 79% 29.93 in 10.0 mi Calm Calm - N/A   Unknown
3:15 AM 62.1 °F 57.0 °F 84% 29.92 in 7.0 mi ENE 4.6 mph - N/A   Unknown
3:35 AM 61.3 °F 57.2 °F 86% 29.92 in 5.0 mi ENE 3.5 mph - N/A   Mist
3:55 AM 61.2 °F 57.0 °F 86% 29.92 in 7.0 mi ENE 4.6 mph - N/A   Unknown
4:15 AM 61.5 °F 56.8 °F 85% 29.91 in 10.0 mi East 4.6 mph - N/A   Unknown
4:35 AM 61.5 °F 56.5 °F 83% 29.90 in 7.0 mi East 4.6 mph - N/A   Unknown
5:15 AM 61.5 °F 56.3 °F 83% 29.90 in 7.0 mi East 3.5 mph - N/A   Unknown
5:35 AM 61.2 °F 56.5 °F 85% 29.90 in 7.0 mi East 3.5 mph - N/A   Unknown
5:55 AM 61.0 °F 56.8 °F 86% 29.91 in 7.0 mi East 4.6 mph - N/A   Unknown
6:15 AM 61.3 °F 56.8 °F 85% 29.91 in 7.0 mi East 5.8 mph - N/A   Unknown
6:35 AM 61.9 °F 56.5 °F 82% 29.91 in 5.0 mi East 5.8 mph - N/A   Haze
6:55 AM 62.4 °F 56.3 °F 80% 29.91 in 10.0 mi East 5.8 mph - N/A   Unknown
7:15 AM 62.6 °F 56.3 °F 80% 29.91 in 7.0 mi East 4.6 mph - N/A   Unknown
7:35 AM 63.0 °F 56.3 °F 79% 29.90 in 10.0 mi East 5.8 mph - N/A   Unknown
8:15 AM 63.3 °F 57.2 °F 80% 29.90 in 5.0 mi East 4.6 mph - N/A   Haze
8:35 AM 63.1 °F 57.9 °F 83% 29.90 in 7.0 mi East 6.9 mph - N/A Rain Light Rain
8:55 AM 63.0 °F 57.9 °F 84% 29.91 in 7.0 mi East 5.8 mph - N/A   Unknown
9:15 AM 63.1 °F 58.3 °F 84% 29.92 in 5.0 mi ENE 4.6 mph - 0.01 in Rain Light Rain
9:35 AM 63.5 °F 59.0 °F 85% 29.93 in 5.0 mi NE 3.5 mph - 0.01 in   Mist
9:55 AM 63.5 °F 59.4 °F 86% 29.92 in 4.0 mi East 5.8 mph - 0.01 in   Haze
10:15 AM 63.9 °F 59.5 °F 86% 29.91 in 5.0 mi ENE 6.9 mph - N/A   Mist
10:35 AM 64.4 °F 60.1 °F 86% 29.92 in 7.0 mi East 5.8 mph - N/A   Unknown
10:55 AM 65.7 °F 60.3 °F 83% 29.92 in 5.0 mi East 8.1 mph - N/A   Haze
11:15 AM 67.3 °F 60.8 °F 80% 29.92 in 7.0 mi ESE 9.2 mph - N/A   Unknown
11:35 AM 68.5 °F 61.0 °F 77% 29.92 in 7.0 mi ESE 9.2 mph - N/A   Unknown
11:55 AM 68.5 °F 60.8 °F 76% 29.93 in 7.0 mi SE 11.5 mph 16.1 mph N/A   Unknown
12:15 PM 68.5 °F 60.3 °F 75% 29.92 in 7.0 mi ESE 10.4 mph - N/A   Unknown
12:35 PM 69.4 °F 60.6 °F 73% 29.91 in 10.0 mi ESE 11.5 mph 16.1 mph N/A   Unknown
12:55 PM 70.2 °F 60.1 °F 70% 29.91 in 10.0 mi SE 15.0 mph - N/A   Unknown
1:15 PM 70.5 °F 59.9 °F 69% 29.90 in 7.0 mi SE 11.5 mph 20.7 mph N/A   Unknown
1:35 PM 71.1 °F 59.7 °F 67% 29.89 in 10.0 mi ESE 13.8 mph 20.7 mph N/A   Unknown
1:55 PM 70.9 °F 59.7 °F 68% 29.89 in 7.0 mi SE 13.8 mph 19.6 mph N/A   Unknown
2:15 PM 70.9 °F 59.5 °F 67% 29.89 in 10.0 mi East 16.1 mph - N/A   Unknown
2:35 PM 71.8 °F 59.9 °F 66% 29.89 in 7.0 mi SE 13.8 mph 17.3 mph N/A   Unknown
3:15 PM 71.1 °F 59.2 °F 66% 29.88 in 7.0 mi ESE 13.8 mph - N/A   Unknown
3:55 PM 71.6 °F 59.7 °F 66% 29.87 in 7.0 mi ESE 12.7 mph 18.4 mph N/A   Unknown
4:15 PM 71.6 °F 59.5 °F 66% 29.86 in 7.0 mi ESE 15.0 mph 18.4 mph N/A   Unknown
4:35 PM 71.1 °F 59.7 °F 67% 29.86 in 10.0 mi SE 15.0 mph - N/A   Unknown
4:55 PM 71.1 °F 59.9 °F 68% 29.85 in 10.0 mi SE 13.8 mph - N/A   Unknown
5:15 PM 71.1 °F 60.3 °F 69% 29.85 in 7.0 mi ESE 12.7 mph 18.4 mph N/A   Unknown
5:55 PM 70.3 °F 59.9 °F 69% 29.84 in 7.0 mi ESE 9.2 mph - N/A   Unknown
6:15 PM 70.3 °F 60.1 °F 70% 29.83 in 10.0 mi ESE 11.5 mph - N/A   Unknown
6:35 PM 70.2 °F 60.3 °F 71% 29.83 in 7.0 mi ESE 11.5 mph - N/A   Unknown
6:55 PM 68.7 °F 61.0 °F 76% 29.83 in 5.0 mi ESE 9.2 mph - 0.01 in Rain Light Rain
7:15 PM 67.5 °F 61.7 °F 82% 29.83 in 5.0 mi ESE 8.1 mph - 0.02 in Rain Light Rain
7:55 PM 66.4 °F 62.4 °F 87% 29.82 in 7.0 mi East 8.1 mph - 0.06 in Rain Light Rain
8:15 PM 66.2 °F 62.6 °F 88% 29.82 in 5.0 mi East 9.2 mph - 0.01 in Rain Light Rain
8:35 PM 65.8 °F 62.6 °F 89% 29.81 in 3.0 mi East 10.4 mph - 0.03 in Rain Light Rain
8:55 PM 65.7 °F 62.8 °F 90% 29.80 in 3.0 mi East 12.7 mph 16.1 mph 0.05 in Rain Light Rain
9:15 PM 65.5 °F 63.1 °F 92% 29.79 in 3.0 mi East 10.4 mph - 0.01 in   Mist
9:35 PM 65.3 °F 63.5 °F 94% 29.79 in 7.0 mi East 10.4 mph - 0.01 in Rain Light Rain
9:55 PM 65.3 °F 63.7 °F 94% 29.78 in 4.0 mi East 13.8 mph - 0.01 in   Mist
10:15 PM 65.5 °F 63.7 °F 94% 29.79 in 5.0 mi ESE 11.5 mph 17.3 mph N/A   Mist
10:35 PM 65.5 °F 63.7 °F 94% 29.79 in 5.0 mi East 12.7 mph - N/A   Mist
10:55 PM 65.8 °F 63.9 °F 93% 29.79 in 5.0 mi ESE 10.4 mph 16.1 mph N/A   Mist
11:15 PM 65.8 °F 64.0 °F 94% 29.78 in 4.0 mi East 10.4 mph - 0.04 in Rain Light Rain
11:35 PM 65.8 °F 64.2 °F 94% 29.78 in 4.0 mi ESE 10.4 mph - 0.04 in   Mist
11:55 PM 65.8 °F 64.4 °F 95% 29.78 in 4.0 mi ESE 12.7 mph - 0.04 in   Mist